W8DRH-13 Weather Reports


time (UTC)temp
C
wind
direction
speed
KPH
gust
KPH
rain 1hr
cm
rain 24hr
cm
rain mn
cm
humidity
%
barometer
mb
20260508154950 12 220 6.4 6.4 0.00 0.05 0.05 71 1010.9
20260508154448 12 253 9.7 11.3 0.00 0.05 0.05 72 1010.6
20260508153944 12 281 3.2 3.2 0.00 0.05 0.05 72 1010.7
20260508153441 12 215 6.4 6.4 0.00 0.05 0.05 72 1010.9
20260508152938 12 216 6.4 9.7 0.00 0.05 0.05 71 1011.1
20260508152434 12 216 6.4 6.4 0.00 0.05 0.05 71 1011.1
20260508151931 12 272 6.4 9.7 0.00 0.05 0.05 71 1011.1
20260508151428 12 225 6.4 9.7 0.00 0.05 0.05 69 1010.8
20260508150924 12 301 6.4 9.7 0.00 0.05 0.05 69 1010.7
20260508150421 12 262 11.3 12.9 0.00 0.05 0.05 69 1010.9
20260508145916 12 241 8.0 9.7 0.00 0.05 0.05 69 1010.8
20260508145413 12 277 9.7 11.3 0.00 0.05 0.05 68 1010.9
20260508144910 12 277 12.9 14.5 0.00 0.05 0.05 68 1010.7
20260508144408 12 256 8.0 11.3 0.00 0.05 0.05 68 1010.7
20260508143905 12 235 12.9 14.5 0.00 0.05 0.05 67 1010.7
20260508143403 12 282 16.1 17.7 0.00 0.05 0.05 67 1011.0
20260508142859 12 255 11.3 11.3 0.00 0.05 0.05 66 1010.9
20260508142356 12 243 14.5 16.1 0.00 0.05 0.05 67 1010.7
20260508141852 12 239 11.3 12.9 0.00 0.05 0.05 67 1010.7
20260508141349 12 229 11.3 12.9 0.00 0.05 0.05 67 1010.9
20260508140847 12 252 8.0 9.7 0.00 0.05 0.05 68 1010.6
20260508140344 12 249 4.8 6.4 0.00 0.05 0.05 70 1010.8
20260508135839 12 241 12.9 14.5 0.00 0.05 0.05 69 1010.7
20260508135336 12 291 8.0 11.3 0.00 0.05 0.05 69 1010.9
20260508134832 12 266 16.1 17.7 0.00 0.05 0.05 68 1010.8
20260508134329 11 277 9.7 11.3 0.00 0.05 0.05 69 1010.9
20260508133825 11 245 11.3 14.5 0.00 0.05 0.05 70 1011.0
20260508133324 11 279 8.0 9.7 0.00 0.05 0.05 70 1010.8
20260508132820 11 242 9.7 11.3 0.00 0.05 0.05 70 1010.9
20260508132318 11 270 11.3 12.9 0.00 0.05 0.05 70 1010.9
20260508131814 11 247 8.0 9.7 0.00 0.05 0.05 72 1010.7
20260508131310 11 286 11.3 12.9 0.00 0.05 0.05 71 1010.8
20260508130807 10 246 11.3 14.5 0.00 0.05 0.05 71 1010.7
20260508130304 11 240 9.7 11.3 0.00 0.05 0.05 72 1010.8
20260508125800 11 246 6.4 6.4 0.00 0.05 0.05 72 1010.8
20260508125256 10 212 4.8 4.8 0.00 0.05 0.05 72 1010.9
20260508124754 10 220 11.3 12.9 0.00 0.05 0.05 71 1010.8
20260508124251 10 260 11.3 16.1 0.00 0.05 0.05 71 1010.6
20260508123749 10 260 14.5 16.1 0.00 0.05 0.05 71 1010.7
20260508123247 10 260 14.5 16.1 0.00 0.05 0.05 71 1010.6
20260508122743 10 248 8.0 9.7 0.00 0.05 0.05 73 1010.8
20260508122240 10 225 8.0 9.7 0.00 0.05 0.05 73 1010.8
20260508121737 10 250 4.8 4.8 0.00 0.05 0.05 73 1010.8
20260508121236 10 234 6.4 6.4 0.00 0.05 0.05 73 1010.7
20260508120733 9 252 9.7 11.3 0.00 0.05 0.05 73 1010.6
20260508120231 9 219 6.4 6.4 0.00 0.05 0.05 73 1010.6
20260508115728 9 188 6.4 6.4 0.00 0.05 0.05 74 1010.5
20260508115226 9 243 8.0 11.3 0.00 0.05 0.05 73 1010.7
20260508114722 9 241 9.7 12.9 0.00 0.05 0.05 74 1010.4
20260508114219 9 180 4.8 6.4 0.00 0.05 0.05 73 1010.3
20260508113715 8 246 4.8 4.8 0.00 0.05 0.05 74 1010.3
20260508113214 8 238 4.8 6.4 0.00 0.05 0.05 74 1010.4
20260508112709 8 240 8.0 9.7 0.00 0.05 0.05 75 1010.4
20260508112207 8 219 6.4 6.4 0.00 0.05 0.05 75 1010.2
20260508111703 8 238 6.4 9.7 0.00 0.05 0.05 75 1010.2
20260508111200 8 232 9.7 12.9 0.00 0.05 0.05 75 1010.4
20260508110658 8 216 4.8 4.8 0.00 0.05 0.05 76 1010.2
20260508110154 7 240 6.4 6.4 0.00 0.05 0.05 76 1010.5
20260508105649 7 231 8.0 11.3 0.00 0.05 0.05 76 1010.3
20260508105146 7 227 6.4 6.4 0.00 0.05 0.05 76 1010.3
20260508104644 7 225 6.4 6.4 0.00 0.05 0.05 76 1010.3
20260508104140 7 229 4.8 6.4 0.00 0.05 0.05 77 1010.3
20260508103637 7 244 6.4 6.4 0.00 0.05 0.05 77 1010.3
20260508103135 7 228 6.4 6.4 0.00 0.05 0.05 77 1010.1
20260508102632 7 218 4.8 4.8 0.00 0.05 0.05 78 1010.2
20260508102130 7 228 4.8 4.8 0.00 0.05 0.05 78 1009.9
20260508101622 7 222 4.8 4.8 0.00 0.05 0.05 79 1010.1
20260508101119 7 214 3.2 4.8 0.00 0.05 0.05 80 1010.1
20260508100617 7 203 3.2 3.2 0.00 0.05 0.05 80 1010.2
20260508100114 7 199 4.8 4.8 0.00 0.05 0.05 80 1009.8
20260508095611 7 196 3.2 3.2 0.00 0.05 0.05 80 1010.1
20260508095108 7 204 3.2 3.2 0.00 0.05 0.05 80 1009.8
20260508094605 7 191 3.2 3.2 0.00 0.05 0.05 80 1009.9
20260508094101 7 217 4.8 4.8 0.00 0.05 0.05 81 1009.9
20260508093559 7 201 3.2 4.8 0.00 0.05 0.05 81 1009.9
20260508093057 7 204 4.8 4.8 0.00 0.05 0.05 82 1009.9
20260508092553 7 155 3.2 3.2 0.00 0.05 0.05 82 1010.0
20260508092052 7 159 3.2 3.2 0.00 0.05 0.05 82 1010.1
20260508091549 7 151 1.6 1.6 0.00 0.05 0.05 82 1010.2
20260508091046 7 149 1.6 1.6 0.00 0.05 0.05 82 1010.2
20260508090544 7 164 3.2 3.2 0.00 0.05 0.05 83 1010.2
20260508090040 7 191 3.2 3.2 0.00 0.05 0.05 83 1010.1
20260508085536 7 162 3.2 3.2 0.00 0.05 0.05 84 1010.0
20260508085034 7 169 3.2 3.2 0.00 0.05 0.05 84 1010.1
20260508084530 7 147 1.6 1.6 0.00 0.05 0.05 84 1010.4
20260508084028 7 156 1.6 3.2 0.00 0.05 0.05 84 1010.0
20260508083525 7 181 3.2 3.2 0.00 0.05 0.05 85 1010.4
20260508083022 7 157 3.2 3.2 0.00 0.05 0.05 85 1010.1
20260508082517 7 153 1.6 3.2 0.00 0.05 0.05 86 1010.1
20260508082015 7 154 1.6 3.2 0.00 0.05 0.05 87 1010.3
20260508081512 7 148 1.6 1.6 0.00 0.05 0.05 87 1010.2
20260508081008 7 165 3.2 3.2 0.00 0.05 0.05 88 1010.3
20260508080506 7 150 1.6 3.2 0.00 0.05 0.05 87 1010.3
20260508080004 7 165 3.2 3.2 0.00 0.05 0.05 88 1010.3
20260508075500 7 155 1.6 3.2 0.00 0.05 0.05 88 1010.5
20260508074957 7 145 1.6 1.6 0.00 0.05 0.05 88 1010.3
20260508074455 7 148 3.2 3.2 0.00 0.05 0.05 88 1010.4
20260508073951 8 141 1.6 3.2 0.00 0.05 0.05 88 1010.4
20260508073449 7 131 0.0 1.6 0.00 0.05 0.05 87 1010.4
20260508072946 7 101 1.6 1.6 0.00 0.05 0.05 87 1010.6
20260508072442 8 113 1.6 1.6 0.00 0.05 0.05 87 1010.6
20260508071939 8 91 0.0 0.0 0.00 0.05 0.05 87 1010.9
20260508071438 8 85 1.6 1.6 0.00 0.05 0.05 87 1011.0
20260508070935 8 81 1.6 1.6 0.00 0.05 0.05 87 1011.1
20260508070432 8 28 8.0 9.7 0.00 0.05 0.05 87 1011.3
20260508065930 8 73 6.4 6.4 0.00 0.05 0.05 87 1011.4
20260508065428 8 143 1.6 3.2 0.00 0.05 0.05 87 1010.9
20260508064925 8 195 0.0 1.6 0.00 0.05 0.05 87 1010.9
20260508064422 8 195 0.0 1.6 0.00 0.05 0.05 87 1010.8
20260508063920 8 197 1.6 1.6 0.00 0.05 0.05 87 1011.0
20260508063418 8 218 0.0 1.6 0.00 0.05 0.05 87 1011.1
20260508062915 8 248 0.0 0.0 0.00 0.05 0.05 85 1011.1
20260508062413 8 249 0.0 0.0 0.00 0.05 0.05 83 1011.4
20260508061909 8 245 1.6 3.2 0.13 0.05 0.05 81 1011.6
20260508061407 8 220 3.2 4.8 0.13 0.05 0.05 80 1011.7
20260508060903 8 239 3.2 4.8 0.00 0.03 0.03 80 1011.7
20260508060401 8 201 3.2 3.2 0.18 0.03 0.03 80 1011.8
20260508055901 9 257 6.4 6.4 0.18 0.03 0.03 78 1012.0
20260508055359 9 259 9.7 9.7 0.00 0.00 0.00 77 1011.8
20260508054855 9 197 3.2 3.2 0.00 0.00 0.00 77 1011.8
20260508054352 9 228 6.4 6.4 0.00 0.00 0.00 76 1011.7
20260508053849 9 271 4.8 4.8 0.00 0.00 0.00 77 1011.9
20260508053346 9 250 6.4 6.4 0.00 0.00 0.00 77 1011.9
20260508052844 9 270 16.1 16.1 0.00 0.00 0.00 76 1012.1
20260508052341 9 292 8.0 9.7 0.00 0.00 0.00 77 1012.0
20260508051837 9 298 4.8 4.8 0.00 0.00 0.00 77 1011.9
20260508051332 9 296 3.2 3.2 0.00 0.00 0.00 76 1011.6
20260508050829 9 62 1.6 1.6 0.00 0.00 0.00 75 1011.6
20260508050326 -17 0.0 0.0 0.00 0.00 0.00 1011.3
20260508045822 9 216 4.8 4.8 0.00 0.00 0.00 72 1011.1
20260508045320 9 216 4.8 4.8 0.00 0.00 0.00 72 1011.1
20260508044817 9 190 1.6 1.6 0.00 0.00 0.00 73 1010.8
20260508044314 9 190 1.6 1.6 0.00 0.00 0.00 72 1010.5
20260508043810 9 191 1.6 1.6 0.00 0.00 0.00 73 1010.8
20260508043307 10 202 1.6 3.2 0.00 0.00 0.00 72 1011.1
20260508042804 10 215 3.2 3.2 0.00 0.00 0.00 70 1011.1
20260508042306 10 228 6.4 9.7 0.00 0.00 0.00 69 1011.0
20260508041758 10 304 1.6 3.2 0.00 0.00 0.00 69 1010.8
20260508041254 10 304 1.6 3.2 0.00 0.00 0.00 69 1010.9
20260508040751 9 4 0.0 1.6 0.00 0.00 0.00 71 1011.4
20260508040248 9 4 0.0 1.6 0.00 0.00 0.00 71 1011.3
20260508035746 9 3 0.0 0.0 0.00 0.00 0.00 71 1011.5
20260508035243 9 3 0.0 0.0 0.00 0.00 0.00 71 1011.1
20260508034739 10 3 0.0 0.0 0.00 0.00 0.00 71 1011.3
20260508034237 10 3 0.0 0.0 0.00 0.00 0.00 71 1011.1
20260508033734 10 3 1.6 1.6 0.00 0.00 0.00 70 1011.1
20260508033232 10 3 0.0 0.0 0.00 0.00 0.00 70 1011.3
20260508032729 10 3 0.0 0.0 0.00 0.00 0.00 67 1011.1
20260508032226 10 3 0.0 0.0 0.00 0.00 0.00 67 1011.3
20260508031723 9 3 0.0 0.0 0.00 0.00 0.00 67 1011.3
20260508031219 -17 0.0 0.0 0.00 0.00 0.00 1011.3
20260508030716 10 3 0.0 0.0 0.00 0.00 0.00 66 1011.5
20260508030213 10 3 0.0 0.0 0.00 0.00 0.00 66 1011.6
20260508025709 10 3 1.6 3.2 0.00 0.00 0.00 66 1011.6
20260508025207 10 3 1.6 1.6 0.00 0.00 0.00 65 1011.8
20260508024702 10 2 1.6 1.6 0.00 0.00 0.00 65 1011.5
20260508024200 10 344 1.6 1.6 0.00 0.00 0.00 67 1011.7
20260508023656 10 344 0.0 1.6 0.00 0.00 0.00 62 1011.5
20260508023154 11 328 0.0 0.0 0.00 0.00 0.00 61 1011.1
20260508022649 10 292 3.2 4.8 0.00 0.00 0.00 60 1011.5
20260508022147 10 33 1.6 3.2 0.00 0.00 0.00 63 1011.3
20260508021643 10 28 1.6 1.6 0.00 0.00 0.00 63 1011.4
20260508021138 10 28 0.0 0.0 0.00 0.00 0.00 64 1011.1
20260508020636 10 27 1.6 1.6 0.00 0.00 0.00 61 1011.3
20260508020134 11 320 3.2 3.2 0.00 0.00 0.00 59 1011.4
20260508015631 11 41 1.6 1.6 0.00 0.00 0.00 61 1011.3
20260508015128 11 305 3.2 3.2 0.00 0.00 0.00 58 1011.3
20260508014624 11 300 6.4 6.4 0.00 0.00 0.00 58 1011.4
20260508014121 11 274 3.2 3.2 0.00 0.00 0.00 57 1011.1
20260508013617 11 303 9.7 11.3 0.00 0.00 0.00 56 1011.1
20260508013114 11 277 6.4 6.4 0.00 0.00 0.00 56 1011.1
20260508012611 11 317 6.4 6.4 0.00 0.00 0.00 57 1010.9
20260508012108 11 293 4.8 4.8 0.00 0.00 0.00 57 1011.1
20260508011607 11 280 6.4 6.4 0.00 0.00 0.00 55 1011.3
20260508011104 11 287 4.8 4.8 0.00 0.00 0.00 54 1010.9
20260508010600 11 259 11.3 12.9 0.00 0.00 0.00 54 1011.1
20260508010058 12 280 20.9 22.5 0.00 0.00 0.00 52 1010.9
20260508005554 12 283 11.3 12.9 0.00 0.00 0.00 50 1011.1
20260508005051 12 327 4.8 6.4 0.00 0.00 0.00 51 1010.9
20260508004547 12 287 9.7 12.9 0.00 0.00 0.00 50 1011.1
20260508004044 12 308 6.4 6.4 0.00 0.00 0.00 50 1010.9
20260508003540 12 183 3.2 3.2 0.00 0.00 0.00 51 1010.9
20260508003038 12 306 6.4 9.7 0.00 0.00 0.00 50 1010.6
20260508002534 12 258 6.4 9.7 0.00 0.00 0.00 49 1010.5
20260508002031 12 273 4.8 4.8 0.00 0.00 0.00 49 1010.6
20260508001527 12 265 8.0 9.7 0.00 0.00 0.00 49 1010.6
20260508001023 12 291 4.8 6.4 0.00 0.00 0.00 50 1010.4
20260508000519 12 287 6.4 9.7 0.00 0.00 0.00 48 1010.6
20260508000017 12 297 4.8 4.8 0.00 0.00 0.00 49 1010.5
20260507235513 12 306 4.8 4.8 0.00 0.00 0.00 49 1010.2
20260507235011 12 273 3.2 3.2 0.00 0.00 0.00 49 1010.3
20260507234507 12 325 3.2 3.2 0.00 0.00 0.00 50 1010.3
20260507234004 12 292 4.8 6.4 0.00 0.00 0.00 50 1010.5
20260507233500 12 337 3.2 4.8 0.00 0.00 0.00 49 1010.2
20260507232959 13 333 4.8 4.8 0.00 0.00 0.00 49 1010.2
20260507232455 13 343 1.6 1.6 0.00 0.00 0.00 48 1010.4
20260507231953 13 299 9.7 11.3 0.00 0.00 0.00 46 1010.3
20260507231448 13 278 8.0 9.7 0.00 0.00 0.00 47 1010.2
20260507230946 13 276 8.0 11.3 0.00 0.00 0.00 47 1010.3
20260507230443 13 261 8.0 9.7 0.00 0.00 0.00 46 1010.3
20260507225938 13 288 11.3 12.9 0.00 0.00 0.00 47 1010.4
20260507225429 13 277 11.3 12.9 0.00 0.00 0.00 46 1010.3
20260507224925 13 263 11.3 12.9 0.00 0.00 0.00 46 1010.3
20260507224421 13 272 9.7 12.9 0.00 0.00 0.00 46 1010.4
20260507223919 13 310 16.1 17.7 0.00 0.00 0.00 44 1010.5
20260507223414 14 305 3.2 3.2 0.00 0.00 0.00 48 1010.6
20260507222911 13 20 1.6 1.6 0.00 0.00 0.00 49 1010.7
20260507222408 13 62 1.6 3.2 0.00 0.00 0.00 51 1010.5
20260507221905 13 1 3.2 4.8 0.00 0.00 0.00 50 1010.8
20260507221401 12 311 4.8 6.4 0.00 0.00 0.00 52 1010.6
20260507220857 12 60 3.2 4.8 0.00 0.00 0.00 50 1010.7
20260507220356 12 348 6.4 6.4 0.00 0.00 0.00 48 1010.7
20260507215852 13 358 1.6 3.2 0.00 0.00 0.00 51 1010.7
20260507215349 13 2 4.8 6.4 0.00 0.00 0.00 49 1010.5
20260507214846 13 325 4.8 4.8 0.00 0.00 0.00 49 1010.4
20260507214343 13 325 6.4 6.4 0.00 0.00 0.00 46 1010.3
20260507213838 14 333 6.4 6.4 0.00 0.00 0.00 49 1010.5
20260507213335 14 315 3.2 3.2 0.00 0.00 0.00 51 1010.1
20260507212832 13 340 3.2 3.2 0.00 0.00 0.00 50 1010.5
20260507212328 12 290 8.0 9.7 0.00 0.00 0.00 50 1010.5
20260507211825 12 29 3.2 4.8 0.00 0.00 0.00 51 1010.5
20260507211321 12 320 1.6 3.2 0.00 0.00 0.00 52 1010.5
20260507210818 12 311 6.4 9.7 0.00 0.00 0.00 50 1010.4
20260507210316 13 341 4.8 6.4 0.00 0.00 0.00 50 1010.5
20260507205811 13 331 17.7 22.5 0.00 0.00 0.00 47 1010.3
20260507205309 13 277 19.3 20.9 0.00 0.00 0.00 47 1010.3
20260507204805 13 53 1.6 3.2 0.00 0.00 0.00 50 1010.2
20260507204303 13 311 11.3 12.9 0.00 0.00 0.00 48 1010.5
20260507203800 13 354 4.8 4.8 0.00 0.00 0.00 53 1010.3
20260507203258 13 286 16.1 20.9 0.00 0.00 0.00 49 1010.4
20260507202754 13 292 16.1 20.9 0.00 0.00 0.00 47 1010.5
20260507202250 13 315 17.7 24.1 0.00 0.00 0.00 48 1010.4
20260507201745 13 310 6.4 9.7 0.00 0.00 0.00 51 1010.4
20260507201242 13 329 8.0 11.3 0.00 0.00 0.00 49 1010.5
20260507200738 13 281 20.9 29.0 0.00 0.00 0.00 47 1010.2
20260507200234 13 330 6.4 6.4 0.00 0.00 0.00 49 1010.3
20260507195730 13 292 29.0 33.8 0.00 0.00 0.00 47 1010.5
20260507195228 12 358 6.4 6.4 0.00 0.00 0.00 54 1010.3
20260507194725 12 358 6.4 6.4 0.00 0.00 0.00 54 1010.4
20260507194221 12 345 4.8 6.4 0.00 0.00 0.00 54 1010.8
20260507193718 13 277 16.1 17.7 0.00 0.00 0.00 50 1010.7
20260507193214 12 327 11.3 12.9 0.00 0.00 0.00 52 1010.8
20260507192710 12 337 8.0 11.3 0.00 0.00 0.00 55 1010.9
20260507192202 13 277 6.4 6.4 0.00 0.00 0.00 55 1010.8
20260507191657 13 342 6.4 9.7 0.00 0.00 0.00 54 1010.8
20260507191155 12 343 6.4 6.4 0.00 0.00 0.00 58 1010.7
20260507190652 12 317 8.0 11.3 0.00 0.00 0.00 54 1010.9
20260507190150 12 337 6.4 6.4 0.00 0.00 0.00 55 1010.8
20260507185648 12 323 9.7 12.9 0.00 0.00 0.00 55 1010.8
20260507185144 12 317 11.3 12.9 0.00 0.00 0.00 54 1010.9
20260507184642 12 341 8.0 9.7 0.00 0.00 0.00 55 1011.0
20260507184140 12 284 12.9 14.5 0.00 0.00 0.00 54 1010.9
20260507183636 12 293 19.3 24.1 0.00 0.00 0.00 53 1010.9
20260507183133 12 295 12.9 14.5 0.00 0.00 0.00 54 1011.1
20260507182630 12 255 17.7 22.5 0.00 0.00 0.00 51 1011.0
20260507182126 12 277 19.3 25.7 0.00 0.00 0.00 53 1010.9
20260507181623 12 298 11.3 14.5 0.00 0.00 0.00 56 1011.0
20260507181119 12 297 12.9 16.1 0.00 0.00 0.00 57 1011.0
20260507180615 12 289 20.9 24.1 0.00 0.00 0.00 55 1010.9
20260507180113 12 260 11.3 12.9 0.00 0.00 0.00 56 1010.9
20260507175608 11 270 14.5 16.1 0.00 0.00 0.00 56 1011.1
20260507175106 12 286 16.1 24.1 0.00 0.00 0.00 55 1011.0
20260507174603 12 252 17.7 20.9 0.00 0.00 0.00 57 1011.0
20260507174101 11 317 16.1 20.9 0.00 0.00 0.00 57 1011.4
20260507173558 12 276 14.5 14.5 0.00 0.00 0.00 56 1011.3
20260507173055 11 275 12.9 20.9 0.00 0.00 0.00 56 1011.3
20260507172550 11 283 11.3 12.9 0.00 0.00 0.00 56 1011.3
20260507172048 11 309 14.5 17.7 0.00 0.00 0.00 59 1011.6
20260507171543 11 268 16.1 20.9 0.00 0.00 0.00 57 1011.3
20260507171040 11 263 4.8 4.8 0.00 0.00 0.00 60 1011.4
20260507170537 11 243 16.1 20.9 0.00 0.00 0.00 57 1011.5
20260507170034 11 289 17.7 20.9 0.00 0.00 0.00 58 1011.7
20260507165530 11 287 9.7 11.3 0.00 0.00 0.00 59 1011.7
20260507165026 11 277 14.5 17.7 0.00 0.00 0.00 60 1011.7
20260507164522 11 289 6.4 6.4 0.00 0.00 0.00 62 1011.5
20260507164014 11 306 12.9 12.9 0.00 0.00 0.00 59 1011.8
20260507163511 11 314 6.4 9.7 0.00 0.00 0.00 60 1011.6
20260507163009 10 283 16.1 17.7 0.00 0.00 0.00 60 1011.7
20260507162504 10 291 24.1 29.0 0.00 0.00 0.00 60 1011.7
20260507162001 11 273 17.7 20.9 0.00 0.00 0.00 58 1011.7
20260507161457 10 274 17.7 22.5 0.00 0.00 0.00 58 1011.7
20260507160954 10 281 17.7 22.5 0.00 0.00 0.00 58 1011.6
20260507160450 11 290 17.7 17.7 0.00 0.00 0.00 57 1011.6
20260507155945 11 300 17.7 20.9 0.00 0.00 0.00 56 1011.6
20260507155442 11 304 9.7 12.9 0.00 0.00 0.00 58 1011.6